User: anonymous   Login
Location: Huntington Beach
(33.6600°N, 117.9980°W)
Time: 20:30:56
(UTC-07:00)
Language:

HST - Orbit

View from above orbital plane
View from above orbital plane
View from above satellite
View from above satellite

Ground track
Ground track

The orbit data is extracted from the following two-line orbital elements,

1 20580U 90037B   14297.62496528  .00003880  00000-0  24804-3 0  1429
2 20580 028.4710 265.9587 0002976 228.3668 096.8280 15.05991342144247
Epoch (UTC): 24 October 2014 14:59:57
Eccentricity: 0.0002976
inclination: 28.4710°
perigee height: 546 km
apogee height: 550 km
right ascension of ascending node: 265.9587°
argument of perigee: 228.3668°
revolutions per day: 15.05991342
mean anomaly at epoch: 96.8280°
orbit number at epoch: 14424

The dashed part of the orbit path shows where the satellite is in the earth's shadow,  

DLR